Regional Weather Roundup
Issued by NWS Little Rock, AR

Home | Current Version | Previous Version | Graphics & Text | Print | Product List | Glossary On
Versions: 1 2 3 4 5 6 7 8 9 10 11 12 13 14 15 16 17 18 19 20 21 22 23 24 25 26 27
000
ASUS44 KLZK 261005
RWRLZK

WEATHER ROUNDUP FOR ARKANSAS
NATIONAL WEATHER SERVICE LITTLE ROCK AR
500 AM CDT THU MAY 26 2016

NOTE: "FAIR" INDICATES FEW OR NO CLOUDS BELOW 12,000 FEET WITH NO
SIGNIFICANT WEATHER AND/OR OBSTRUCTIONS TO VISIBILITY.

ARZ001-003-010-029-261100-
NORTHWEST ARKANSAS

CITY           SKY/WX    TMP DP  RH WIND       PRES   REMARKS
FAYETTEVILLE   CLEAR     73  72  96 S10       29.93F
FORT SMITH     PTCLDY    73  70  90 CALM      29.92S
HARRISON       CLEAR     71  69  93 SE9       29.94F
BENTONVILLE    PTCLDY    73  68  83 SW9       29.93S
ROGERS           N/A     73  71  93 S9        29.94R
SILOAM SPGS    MOCLDY    73  64  73 S10       29.93S
HIGHFILL       CLOUDY    74  73  97 S9        29.93R
$$

ARZ004-005-016-261100-
NORTH CENTRAL ARKANSAS

CITY           SKY/WX    TMP DP  RH WIND       PRES   REMARKS
BATESVILLE     MOCLDY    73  72  94 S7        29.98R
FLIPPIN        PTCLDY   N/A N/A N/A NE3       29.91S
MTN HOME       CLEAR     71  70  96 SE5       29.94F FOG
$$

ARZ040-041-261100-
WEST CENTRAL ARKANSAS

CITY           SKY/WX    TMP DP  RH WIND       PRES   REMARKS
MENA           CLOUDY    79  75  89 SW5       29.98S
MOUNT IDA      CLOUDY    78  71  79 CALM      29.96S
$$

ARZ009-017-025-026-028-261100-
NORTHEAST ARKANSAS

CITY           SKY/WX    TMP DP  RH WIND       PRES   REMARKS
CORNING          N/A     68  68 100 SE6       29.98F
JONESBORO      CLEAR     70  68  93 S6        29.99R
NEWPORT        CLEAR     73  73 100 S6        29.99R
WALNUT RIDGE   CLEAR     72  66  83 S10       29.98R
BLYTHEVILLE    CLEAR     69  64  84 S7        30.01S
$$

ARZ022-023-033-042-044-261100-
CENTRAL ARKANSAS

CITY           SKY/WX    TMP DP  RH WIND       PRES   REMARKS
LITTLE ROCK    PTCLDY    77  72  84 S10       29.97F
N LITTLE ROCK    N/A     75  72  91 SW8       29.95F
JACKSONVILLE   CLEAR     77  74  90 SW13      29.97S
SEARCY         CLEAR     71  70  96 S5        29.98F FOG
HOT SPRINGS    CLOUDY    76  72  87 S7        29.99S
RUSSELLVILLE   MOCLDY    77  73  87 S7        29.95S
CLINTON        CLOUDY    75  73  94 CALM      29.96F
$$

ARZ036-261100-
EAST ARKANSAS

CITY           SKY/WX    TMP DP  RH WIND       PRES   REMARKS
WEST MEMPHIS   PTCLDY    71  67  87 S12       30.00F
$$

ARZ050-053-066-070-073-261100-
SOUTHWEST ARKANSAS

CITY           SKY/WX    TMP DP  RH WIND       PRES   REMARKS
ARKADELPHIA    FAIR      71  71 100 CALM      30.00R
CAMDEN         CLEAR     73  70  88 S6        30.00S
TEXARKANA      CLOUDY    75  72  90 S8        30.00R
EL DORADO      PTCLDY    74  72  93 S7        30.02R
DE QUEEN       CLOUDY    77  73  87 S5        29.95S
$$

ARZ056-057-069-261100-
SOUTHEAST ARKANSAS

CITY           SKY/WX    TMP DP  RH WIND       PRES   REMARKS
PINE BLUFF     CLEAR     75  72  90 SW12      29.99F
STUTTGART      CLEAR     73  66  78 S12       29.99F
MONTICELLO     CLEAR     72  70  93 S3        30.02S

$$






USA.gov is the U.S. government's official web portal to all federal, state and local government web resources and services.